Temperature
14 14 14 14 14 14 14 14 14 14 14 14 14 14 15 15 15 15 15 15 15 14 15 14 14 14 15 15 15 15 15 15 15 15 15 15 15 15 15 14 15 14 14
14 14 14 14 14 14 14 14 14 14 14 14 14 14 14 15 15 15 15 15 14 14 14 14 14 14 14 14 15 15 15 15 15 15 15 15 14 14 14 14 14 14 14
14 14 14 13 13 13 14 14 14 14 14 14 14 14 14 14 14 14 14 15 14 14 14 14 14 14 14 14 14 14 14 14 14 14 14 14 14 14 14 14 14 14 14
14 14 13 13 13 13 13 14 14 14 14 14 14 14 14 14 14 14 14 14 14 14 14 14 14 14 14 14 14 14 14 14 14 14 14 14 14 14 14 14 14 14 14
13 13 13 13 13 13 13 13 14 14 13 13 14 14 14 14 14 14 14 14 14 14 14 14 14 14 14 14 14 14 14 14 14 14 14 14 14 14 13 14 13 13 13
13 13 13 13 13 13 13 13 13 13 13 13 13 14 14 14 14 14 14 14 14 14 14 14 13 13 13 13 13 14 14 14 14 14 13 13 13 13 13 13 13 13 13
13 13 13 12 12 12 12 13 13 13 13 13 13 13 13 13 13 13 13 13 13 13 13 13 13 13 13 13 13 13 13 13 13 13 13 13 13 13 13 13 13 13 13
12 12 12 12 12 12 12 12 12 12 13 13 13 13 13 13 13 13 13 13 13 13 13 13 13 13 13 13 13 13 13 13 13 13 13 13 13 12 12 12 12 12 12
12 12 12 12 12 12 12 12 12 12 12 13 13 13 13 13 13 13 13 13 13 13 13 13 13 13 13 12 13 13 13 13 13 13 13 12 12 12 12 12 12 12 12
11 11 11 11 11 11 11 12 12 12 12 12 12 12 12 12 12 12 12 12 13 12 12 12 12 12 12 12 12 12 12 12 12 12 12 12 12 12 12 12 12 12 12
10 10 11 11 11 11 11 11 11 11 12 12 12 12 12 12 12 12 12 12 12 12 12 12 12 12 12 12 12 12 12 12 12 12 12 12 11 11 11 11 11 11 11
10 10 10 10 10 10 10 11 11 11 11 11 12 12 12 12 12 12 11 12 12 12 12 12 12 12 12 11 11 11 12 12 12 12 12 11 11 11 11 11 11 11 11
10 10 9 9 10 10 10 10 10 10 11 11 11 11 11 11 11 11 11 11 11 11 11 11 11 11 11 11 11 11 11 11 11 11 11 11 11 11 11 11 11 11 11
9 9 9 9 9 9 9 10 10 10 10 10 11 11 11 11 11 11 11 11 11 11 11 11 11 11 11 11 11 11 11 11 11 11 11 11 11 11 11 11 11 10 10
8 9 9 9 9 9 9 9 9 9 9 10 10 10 10 10 11 10 10 10 10 10 10 10 10 10 10 10 10 10 10 10 10 10 10 10 10 10 10 10 10 10 10
8 8 8 8 8 8 8 9 9 9 9 9 9 10 10 10 10 10 10 10 10 10 10 10 10 10 10 10 10 10 10 10 10 10 10 10 10 10 10 10 10 10 10
7 7 8 8 8 8 8 8 8 8 8 9 9 9 9 9 9 9 9 9 9 9 9 9 9 9 9 9 9 9 9 9 9 9 9 9 9 9 9 9 9 9 9
6 6 7 7 7 8 8 8 8 8 8 8 8 9 9 9 9 9 9 9 9 9 9 9 9 9 9 9 9 9 9 9 9 9 9 9 9 9 9 9 9 9 9
6 6 6 6 7 7 7 7 7 7 7 8 8 8 8 8 8 8 8 8 8 8 8 8 8 8 8 8 8 8 8 8 8 8 8 9 9 9 9 8 9 8 8
5 5 6 6 6 6 6 6 7 7 7 7 7 7 7 8 8 8 8 8 8 8 8 8 8 8 8 8 7 7 7 7 8 8 8 8 8 8 8 8 8 8 8
5 5 5 5 6 6 6 6 6 6 7 7 7 7 7 7 7 7 7 7 7 7 7 7 7 7 7 7 7 7 7 7 7 7 7 7 7 7 7 8 8 7 8
4 4 4 5 5 5 5 5 6 6 6 6 6 6 6 6 6 6 6 7 7 7 7 7 7 7 7 7 7 6 6 6 6 6 6 7 7 7 7 7 7 7 7
3 4 4 4 4 4 4 5 5 5 5 5 5 5 5 5 5 6 6 6 6 6 6 6 6 6 6 6 6 6 6 6 5 5 6 6 6 6 6 6 7 7 6
3 3 3 3 3 3 4 4 4 4 4 5 5 5 5 5 5 5 5 5 5 5 5 6 6 6 6 6 6 6 6 6 5 5 5 5 5 5 6 6 6 6 6
2 2 2 3 3 3 3 3 3 4 4 4 4 4 4 4 4 4 4 4 4 5 5 5 5 5 5 5 5 5 5 5 6 5 4 5 5 5 5 5 5 5 5
1 2 2 2 2 2 2 3 3 3 3 3 3 3 3 3 3 3 3 4 4 4 4 4 4 5 5 5 5 5 5 5 5 5 5 4 4 4 4 4 4 5 5
Wind_Speed
2 2 3 4 6 7 8 9 9 10 11 12 13 14 14 14 14 14 14 14 14 14 15 15 15 16 16 17 17 17 17 17 17 17 17 17 17 18 18 18 17 17 18
2 3 4 5 6 7 7 8 9 10 11 11 12 13 14 14 14 14 14 14 14 14 14 15 15 16 16 16 17 17 16 17 17 17 17 16 16 17 18 18 17 17 18
2 3 4 5 6 6 7 7 8 9 10 11 12 12 13 14 14 13 13 13 13 14 14 14 14 15 16 16 16 16 16 16 17 16 15 14 14 16 17 18 18 18 18
3 4 4 5 6 6 7 8 8 8 9 10 11 12 13 13 13 13 13 13 14 14 14 14 14 15 15 16 16 16 16 16 16 15 14 13 13 15 17 17 18 18 18
3 4 4 6 6 6 7 8 8 8 9 9 11 12 12 13 13 13 13 13 13 14 14 14 14 15 15 16 15 16 16 16 15 14 13 13 12 15 16 17 17 17 18
3 4 4 6 6 6 7 7 8 9 9 9 10 11 12 12 12 12 12 13 13 14 14 14 14 14 15 15 15 15 15 15 15 14 13 12 12 14 16 16 16 17 18
3 3 4 5 6 6 7 7 7 8 9 9 10 10 11 11 11 12 12 12 13 13 13 14 14 14 14 15 15 15 15 15 14 13 12 11 12 15 15 15 16 17 18
3 3 4 5 6 6 6 7 7 7 8 9 9 10 11 11 11 11 12 12 12 13 13 13 13 14 14 14 14 14 14 13 13 12 11 11 12 14 15 15 16 17 18
4 3 3 3 5 6 6 6 7 7 7 8 9 9 10 10 10 11 11 11 12 12 12 13 13 13 13 13 14 14 14 14 13 11 10 10 12 14 15 16 16 17 17
4 4 4 3 3 4 5 6 7 7 7 7 8 10 10 10 10 10 10 11 11 11 12 13 13 13 13 13 14 14 14 13 12 11 9 9 11 14 15 16 16 16 17
2 3 3 3 3 4 4 5 6 6 6 6 7 9 9 8 8 9 10 11 11 11 11 12 13 13 13 13 13 13 12 11 10 9 9 9 11 13 14 15 15 15 16
1 1 2 2 3 4 3 4 4 5 6 6 7 8 8 8 8 8 9 10 10 11 11 12 13 13 12 11 11 12 11 10 10 8 9 10 11 12 13 14 14 14 14
2 1 1 1 2 3 3 4 4 4 5 5 7 7 7 7 8 8 7 8 8 9 10 10 10 10 10 9 9 10 10 10 9 8 9 11 11 11 12 13 13 13 13
0 0 1 1 2 3 3 3 4 4 4 4 5 6 6 5 5 5 5 6 7 6 7 7 7 8 9 9 9 10 10 9 8 8 9 11 11 11 11 11 12 12 13
1 1 1 1 1 2 3 3 3 4 4 4 5 5 6 5 4 5 4 5 6 6 6 6 6 7 7 8 9 9 9 9 9 9 9 11 11 11 11 11 11 11 11
2 2 1 1 1 2 3 2 3 4 4 4 4 4 5 5 5 5 4 4 5 5 5 6 6 6 6 6 7 8 8 9 9 9 9 10 11 11 10 11 11 11 11
2 2 1 0 2 2 3 3 3 3 4 4 3 4 5 5 5 5 4 4 4 5 6 6 6 6 5 6 6 7 7 8 8 9 9 9 9 10 11 11 11 11 11
2 2 2 1 1 1 2 2 3 3 4 3 3 4 4 5 6 5 4 3 4 5 6 5 4 4 4 4 4 4 6 7 7 8 9 9 9 8 9 10 11 11 10
1 1 1 0 0 1 1 2 4 4 4 3 4 3 3 4 5 5 4 4 5 5 4 4 3 3 4 4 4 4 5 5 5 7 7 8 9 8 8 9 10 10 10
2 1 1 0 0 1 1 2 3 3 3 3 3 3 3 3 4 5 5 5 5 4 3 4 4 3 4 4 5 4 4 4 5 5 5 7 8 8 8 8 8 8 9
3 2 1 1 1 0 1 1 1 2 1 1 2 2 3 3 4 4 4 5 4 4 4 5 4 5 4 4 4 3 3 4 4 4 5 5 6 7 8 8 7 7 7
3 3 1 1 1 1 1 2 1 2 2 1 2 2 3 3 3 4 4 3 4 4 5 5 5 3 3 3 3 3 2 1 2 3 3 3 5 6 7 6 7 7 7
4 3 2 1 1 1 1 1 1 2 1 1 1 1 1 2 2 3 4 4 4 5 5 5 5 5 4 2 1 3 4 3 1 1 1 2 3 3 4 5 6 6 6
4 3 2 2 1 0 2 2 2 2 2 2 2 2 1 2 2 2 3 4 3 4 4 5 5 4 6 5 1 0 1 3 4 2 0 0 1 1 2 3 4 5 6
4 3 2 2 2 1 1 3 3 2 1 1 1 2 2 1 2 2 3 3 3 3 4 4 4 4 5 5 3 2 1 1 3 3 3 2 1 1 0 2 3 4 4
5 4 3 3 2 1 1 1 3 3 2 1 2 2 1 1 1 1 2 3 3 2 4 4 5 5 4 4 4 3 3 3 3 3 3 3 2 1 1 1 2 3 3
Wind_Direction
257 284 182 131 116 114 112 111 109 108 111 109 109 112 112 109 106 104 100 97 95 96 96 96 95 95 93 90 88 86 85 84 82 80 79 81 84 85 84 82 79 78 81
217 189 160 128 119 120 117 114 113 109 113 113 112 112 111 109 107 105 103 99 98 96 96 97 97 96 94 92 89 87 87 86 84 80 76 77 82 86 87 85 83 83 82
123 145 148 132 120 118 117 116 113 112 115 117 115 113 112 109 108 107 105 102 99 97 96 96 97 96 93 92 91 89 89 89 85 79 75 74 81 87 88 87 86 84 83
120 134 139 134 124 117 122 120 115 119 117 121 120 117 115 113 111 109 107 103 100 98 97 95 98 98 96 94 92 91 90 89 84 79 73 73 80 87 89 89 88 86 85
110 117 134 136 128 123 123 126 124 122 120 124 123 119 117 116 114 112 109 105 103 100 98 98 98 100 99 97 95 93 91 89 83 77 74 74 80 89 91 90 89 88 87
107 113 134 136 131 128 125 123 128 126 125 128 128 123 120 118 117 114 110 108 105 103 101 101 100 100 100 100 98 95 92 89 82 76 74 75 82 93 93 93 94 92 89
111 106 132 135 131 128 130 129 125 131 128 130 135 129 125 121 118 116 113 111 109 107 104 102 102 98 100 99 98 97 94 91 84 77 74 76 87 94 95 95 95 94 92
106 95 127 139 133 130 129 130 130 125 130 130 136 137 130 124 119 115 114 114 111 110 108 106 104 101 99 101 100 97 93 92 85 79 75 79 90 96 97 97 96 94 92
80 78 79 119 132 135 133 133 132 127 122 130 134 136 131 125 122 118 116 116 115 111 110 109 107 105 100 101 101 97 92 89 83 78 77 82 95 100 100 98 98 96 94
65 64 55 70 104 118 129 138 131 126 122 121 130 132 130 127 126 121 117 116 116 113 111 111 109 106 103 101 101 97 94 88 81 78 79 88 98 102 101 100 98 97 95
45 34 45 54 66 95 117 131 131 127 122 117 113 121 120 116 115 115 115 116 114 112 112 112 108 104 101 99 99 97 91 85 83 80 82 89 98 103 103 102 101 100 99
234 338 30 51 60 79 98 111 116 116 114 108 104 107 112 113 113 111 111 109 107 105 105 104 103 98 93 91 93 91 86 84 81 79 85 90 97 102 104 105 105 105 104
208 221 1 52 80 93 86 97 94 98 100 102 103 106 108 106 105 103 100 98 96 97 92 94 92 91 92 91 92 90 86 81 76 75 85 91 94 100 103 106 107 109 108
215 249 311 68 93 97 101 101 94 90 91 94 104 110 111 102 95 99 98 98 92 92 93 91 89 90 92 92 95 93 87 81 77 75 81 90 92 95 100 103 105 107 109
286 282 309 47 111 113 106 107 102 95 100 105 113 118 121 116 108 103 105 101 99 99 101 98 97 96 92 89 91 95 89 83 78 76 74 81 89 92 95 99 103 107 108
312 307 303 1 95 116 119 119 115 114 115 110 110 118 124 124 121 117 108 103 105 109 109 107 105 103 95 93 86 89 90 86 81 79 76 74 76 84 90 94 100 105 107
314 328 327 294 45 111 126 123 114 118 120 113 113 116 123 127 127 123 118 110 111 115 110 102 97 97 94 91 84 83 88 85 86 82 79 75 72 74 82 88 93 101 104
340 335 316 2 30 66 117 120 102 107 111 108 111 111 123 130 136 131 124 121 121 116 114 112 111 112 107 102 94 80 82 83 80 81 80 77 75 73 76 80 83 88 94
320 319 303 329 36 39 63 109 103 99 96 100 105 112 122 130 137 140 133 128 128 117 111 125 119 128 124 108 97 80 78 79 78 80 75 74 76 76 76 77 76 75 83
320 302 286 283 31 45 67 84 99 92 81 81 90 98 113 126 133 135 129 127 132 126 126 132 136 122 125 120 102 77 72 73 73 77 79 76 75 77 79 79 77 74 76
4 350 319 359 2 88 157 151 171 182 173 103 65 85 108 119 127 127 126 129 134 146 148 138 135 131 119 123 108 89 61 67 72 64 69 78 73 76 80 81 83 79 75
359 353 346 313 261 219 202 190 194 192 179 157 89 75 95 110 130 137 127 143 143 147 145 143 138 144 135 142 134 129 124 60 43 51 60 78 75 72 72 78 83 82 81
355 348 335 320 275 232 168 111 94 83 85 80 109 101 69 111 125 134 139 143 144 150 163 163 161 155 161 174 142 144 154 182 169 19 52 76 73 70 71 76 81 82 85
336 340 348 341 349 240 158 140 139 149 182 204 196 179 104 110 119 131 144 141 145 149 164 173 165 166 164 173 192 241 127 141 153 166 241 75 74 78 75 79 84 86 86
345 349 359 6 4 23 113 167 165 167 190 180 142 144 150 112 119 134 139 136 145 153 163 171 167 170 173 173 171 161 111 98 128 154 180 194 207 230 163 110 109 102 97
359 7 12 18 3 9 41 142 179 176 178 150 148 161 177 173 132 127 146 143 157 160 171 178 175 179 183 175 169 163 160 162 166 156 171 182 196 223 224 130 126 116 115
Height
1517 1519 1521 1523 1524 1525 1526 1527 1529 1530 1531 1532 1533 1534 1535 1536 1537 1538 1539 1539 1540 1541 1541 1542 1542 1543 1543 1543 1544 1544 1545 1545 1546 1546 1546 1547 1547 1548 1548 1549 1549 1549 1550
1517 1519 1521 1523 1524 1525 1527 1528 1529 1530 1532 1533 1534 1535 1536 1536 1537 1538 1539 1540 1541 1542 1542 1543 1544 1544 1545 1545 1546 1546 1547 1547 1548 1548 1548 1549 1549 1550 1550 1551 1551 1551 1552
1516 1519 1521 1523 1524 1525 1527 1528 1529 1531 1532 1533 1534 1536 1536 1537 1538 1539 1540 1541 1542 1542 1543 1544 1545 1545 1546 1547 1547 1548 1548 1549 1549 1550 1550 1551 1551 1552 1553 1553 1553 1554 1554
1516 1518 1520 1522 1524 1525 1527 1528 1529 1531 1532 1533 1535 1536 1537 1538 1538 1540 1540 1541 1542 1543 1544 1544 1545 1546 1547 1548 1549 1549 1550 1551 1551 1552 1552 1553 1553 1554 1554 1555 1556 1556 1556
1516 1518 1520 1522 1524 1525 1526 1528 1529 1530 1532 1533 1535 1536 1537 1538 1539 1540 1541 1542 1542 1543 1544 1545 1546 1547 1548 1549 1550 1551 1551 1552 1553 1553 1554 1555 1555 1556 1556 1557 1558 1558 1558
1516 1518 1519 1521 1523 1525 1526 1527 1529 1530 1532 1533 1535 1536 1537 1538 1539 1540 1541 1542 1543 1544 1545 1546 1547 1548 1549 1550 1551 1552 1552 1553 1554 1555 1555 1556 1557 1557 1558 1559 1559 1560 1560
1515 1517 1519 1521 1522 1524 1526 1527 1528 1529 1531 1533 1534 1536 1537 1538 1539 1540 1541 1542 1543 1544 1545 1546 1547 1548 1549 1551 1552 1553 1554 1555 1555 1556 1557 1557 1558 1559 1560 1560 1561 1561 1562
1515 1516 1518 1520 1522 1523 1525 1526 1528 1529 1530 1532 1533 1535 1536 1537 1539 1540 1541 1542 1543 1544 1545 1547 1548 1549 1550 1551 1553 1554 1555 1556 1557 1557 1558 1559 1560 1560 1561 1561 1562 1563 1563
1515 1516 1517 1519 1521 1522 1524 1525 1527 1528 1529 1531 1532 1534 1535 1537 1538 1540 1541 1542 1543 1544 1546 1547 1548 1549 1551 1552 1553 1554 1555 1557 1558 1558 1559 1560 1561 1561 1562 1562 1563 1564 1565
1514 1515 1516 1518 1519 1521 1522 1524 1526 1527 1529 1530 1532 1533 1535 1536 1538 1539 1540 1542 1543 1544 1546 1547 1548 1549 1551 1552 1554 1555 1556 1557 1558 1559 1560 1561 1562 1563 1563 1563 1564 1565 1566
1513 1514 1515 1517 1518 1519 1521 1522 1525 1526 1527 1529 1530 1532 1534 1535 1537 1538 1540 1541 1543 1544 1546 1547 1548 1549 1551 1553 1554 1556 1557 1558 1559 1560 1561 1562 1563 1564 1564 1565 1565 1566 1567
1510 1512 1513 1515 1516 1518 1519 1521 1523 1524 1526 1527 1529 1530 1532 1534 1536 1537 1539 1541 1542 1544 1545 1547 1548 1550 1551 1553 1554 1556 1557 1558 1560 1561 1562 1563 1564 1564 1565 1566 1566 1567 1568
1509 1510 1512 1513 1515 1516 1518 1519 1521 1522 1524 1526 1527 1529 1530 1533 1534 1536 1538 1540 1541 1543 1545 1546 1548 1549 1551 1553 1554 1556 1557 1558 1560 1561 1562 1563 1564 1565 1566 1566 1567 1568 1568
1507 1508 1510 1511 1513 1514 1516 1517 1519 1520 1522 1523 1525 1527 1529 1530 1533 1534 1536 1538 1540 1542 1543 1545 1547 1549 1550 1552 1554 1555 1557 1558 1559 1561 1562 1563 1565 1565 1566 1567 1568 1568 1569
1506 1507 1508 1509 1510 1512 1514 1515 1517 1518 1520 1521 1523 1525 1527 1529 1530 1533 1535 1537 1538 1540 1542 1544 1546 1548 1550 1551 1553 1555 1556 1558 1559 1561 1562 1563 1564 1565 1566 1567 1568 1569 1569
1504 1505 1506 1507 1508 1510 1511 1513 1514 1516 1518 1519 1521 1523 1525 1527 1528 1531 1533 1535 1536 1538 1541 1543 1545 1546 1548 1550 1552 1554 1556 1557 1559 1560 1562 1563 1564 1565 1566 1567 1568 1569 1569
1502 1503 1504 1505 1506 1508 1509 1511 1512 1514 1515 1517 1519 1520 1523 1525 1526 1528 1530 1532 1534 1536 1539 1541 1543 1545 1547 1549 1551 1552 1555 1556 1558 1560 1561 1562 1563 1564 1566 1567 1568 1569 1569
1500 1500 1501 1503 1504 1505 1507 1508 1509 1511 1513 1515 1517 1519 1521 1522 1524 1526 1528 1530 1532 1534 1536 1538 1540 1543 1545 1547 1549 1551 1553 1555 1557 1558 1560 1561 1562 1563 1565 1566 1567 1568 1569
1497 1498 1498 1499 1500 1502 1504 1505 1507 1509 1511 1512 1514 1516 1517 1519 1521 1524 1525 1527 1529 1531 1533 1535 1538 1540 1542 1545 1547 1549 1552 1553 1555 1557 1558 1560 1561 1562 1563 1565 1566 1567 1568
1495 1495 1496 1496 1498 1499 1501 1503 1504 1506 1508 1510 1511 1512 1514 1516 1518 1520 1522 1524 1526 1528 1530 1532 1535 1538 1540 1542 1545 1547 1550 1552 1553 1555 1557 1558 1560 1561 1562 1563 1564 1565 1566
1491 1492 1493 1493 1494 1496 1497 1498 1500 1502 1504 1506 1508 1509 1511 1513 1515 1517 1518 1520 1522 1525 1527 1529 1532 1534 1537 1539 1542 1545 1547 1549 1551 1553 1555 1556 1558 1559 1560 1561 1562 1564 1565
1488 1489 1489 1491 1492 1493 1494 1495 1497 1499 1501 1502 1504 1506 1508 1510 1512 1514 1515 1517 1519 1521 1524 1526 1528 1530 1533 1536 1538 1541 1544 1548 1548 1550 1552 1554 1555 1556 1558 1559 1561 1562 1563
1486 1486 1487 1488 1489 1490 1491 1493 1495 1496 1497 1499 1500 1502 1504 1506 1508 1510 1512 1514 1516 1517 1519 1522 1524 1526 1528 1532 1535 1537 1539 1541 1544 1547 1549 1550 1552 1554 1555 1557 1558 1560 1561
1485 1485 1485 1485 1486 1488 1488 1489 1490 1491 1493 1494 1496 1498 1500 1502 1504 1507 1509 1511 1512 1514 1516 1518 1521 1523 1525 1528 1531 1533 1535 1536 1540 1542 1545 1547 1549 1551 1552 1554 1555 1557 1558
1484 1483 1483 1483 1483 1484 1485 1486 1487 1488 1489 1492 1493 1494 1496 1499 1501 1503 1505 1507 1508 1510 1512 1515 1517 1519 1521 1524 1526 1528 1530 1532 1535 1536 1539 1542 1545 1547 1549 1551 1552 1554 1555
1482 1481 1481 1481 1481 1481 1482 1483 1483 1484 1486 1488 1489 1490 1492 1494 1496 1499 1501 1502 1505 1506 1509 1511 1513 1515 1517 1520 1522 1524 1525 1528 1530 1532 1534 1536 1540 1543 1546 1547 1549 1550 1552